Date,TemperatureHighF,TemperatureAvgF,TemperatureLowF,DewpointHighF,DewpointAvgF,DewpointLowF,HumidityHigh,HumidityAvg,HumidityLow,PressureMaxIn,PressureMinIn,WindSpeedMaxMPH,WindSpeedAvgMPH,GustSpeedMaxMPH,PrecipitationSumIn
2013-2-1,30.0,25.9,16.9,18.0,9.3,2.8,61,49,37,30.05,29.47,18,7,30,0.00
2013-2-2,26.1,20.9,14.1,15.3,7.2,2.4,66,55,44,30.22,30.03,8,2,15,0.00
2013-2-3,28.0,25.2,21.9,18.3,15.8,13.2,83,68,57,30.03,29.70,9,3,19,0.00
2013-2-4,29.5,24.4,18.2,15.7,8.9,-0.3,75,53,32,29.88,29.65,14,6,28,0.00
2013-2-5,26.9,19.4,13.5,13.7,4.1,-1.8,66,51,41,30.03,29.88,8,2,13,0.00
2013-2-6,37.1,26.5,19.6,25.7,14.7,-4.5,83,63,34,30.29,29.92,10,3,20,0.00
2013-2-7,27.2,17.3,12.4,1.4,-3.2,-6.3,52,40,25,30.55,30.28,9,4,18,0.00
2013-2-8,16.9,14.2,11.3,14.7,10.3,-0.1,91,85,49,30.54,29.84,19,8,32,0.00
2013-2-9,20.9,16.1,12.1,14.1,10.6,7.7,90,79,64,30.09,29.61,20,11,41,0.00
2013-2-10,37.4,25.2,15.3,19.8,6.4,0.9,77,47,25,30.37,30.09,10,3,24,0.00
2013-2-11,40.7,28.6,20.6,39.6,25.5,14.5,96,88,73,30.36,29.59,7,1,15,0.51
2013-2-12,44.9,36.8,30.5,32.3,29.8,27.9,96,77,54,29.78,29.54,13,4,22,0.01
2013-2-13,42.6,35.6,30.4,30.9,26.9,24.1,82,71,53,29.83,29.73,7,2,12,0.00
2013-2-14,46.3,35.7,30.4,29.3,23.8,19.4,80,63,37,29.99,29.71,8,2,16,0.00
2013-2-15,44.6,36.3,26.9,37.6,31.3,23.8,91,82,71,30.00,29.90,10,3,18,0.00
2013-2-16,37.1,33.9,29.0,34.3,28.9,14.9,93,82,56,29.94,29.77,11,3,20,0.01
2013-2-17,29.0,22.7,19.8,18.2,12.7,4.7,87,66,49,29.78,29.25,18,9,33,0.00
2013-2-18,33.3,23.6,16.6,10.8,4.8,-0.6,60,45,27,30.07,29.50,17,7,30,0.00
2013-2-19,42.9,32.6,21.3,41.6,19.0,-0.1,95,60,33,30.12,29.56,10,3,20,0.46
2013-2-20,42.5,34.3,27.6,41.2,27.1,17.4,96,75,59,29.67,29.45,13,5,21,0.05
2013-2-21,29.6,26.8,23.2,22.4,16.3,9.5,75,64,50,30.15,29.67,11,6,22,0.00
2013-2-22,40.4,32.8,27.6,28.0,23.0,19.8,89,68,48,30.41,30.15,9,3,18,0.00
2013-2-23,37.2,33.2,29.9,33.7,29.6,24.8,93,86,79,30.37,30.02,10,3,16,0.07
2013-2-24,35.6,31.4,28.6,33.7,30.0,27.4,95,95,91,30.02,29.79,9,3,19,0.07
2013-2-25,44.1,32.8,27.1,33.2,29.0,25.3,95,86,60,30.25,29.92,6,1,10,0.22
2013-2-26,42.6,36.6,31.8,32.2,30.2,27.9,95,78,61,30.36,30.24,7,2,10,0.01
2013-2-27,38.7,34.8,32.1,35.0,32.2,29.6,96,90,75,30.24,29.64,18,7,28,0.40
2013-2-28,41.1,36.4,32.3,40.0,35.3,30.5,96,96,93,29.64,29.53,13,4,24,0.61